Total_Precipitation_Accumulation
0.00 0.00 0.00 0.01 0.01 0.01 0.02 0.03 0.04 0.03 0.04 0.06 0.08 0.11 0.15 0.19 0.23 0.27 0.28 0.29 0.30 0.29 0.30 0.32 0.34 0.39 0.45 0.44 0.44 0.43 0.41 0.47 0.47 0.14 0.06 0.07 0.14 0.18 0.19 0.19 0.17 0.16 0.18
0.00 0.00 0.00 0.00 0.01 0.03 0.05 0.06 0.07 0.07 0.08 0.10 0.13 0.17 0.21 0.24 0.27 0.34 0.37 0.38 0.44 0.43 0.39 0.39 0.41 0.42 0.47 0.50 0.53 0.52 0.47 0.43 0.48 0.30 0.10 0.08 0.14 0.20 0.24 0.26 0.24 0.20 0.16
0.00 0.00 0.00 0.01 0.02 0.04 0.06 0.11 0.15 0.20 0.22 0.24 0.27 0.33 0.39 0.42 0.44 0.47 0.51 0.59 0.65 0.64 0.62 0.61 0.56 0.54 0.57 0.54 0.56 0.57 0.52 0.45 0.42 0.39 0.21 0.14 0.17 0.23 0.30 0.33 0.33 0.29 0.24
0.01 0.00 0.01 0.02 0.04 0.07 0.10 0.16 0.25 0.35 0.42 0.48 0.52 0.55 0.61 0.69 0.80 0.85 0.84 0.84 0.83 0.80 0.79 0.79 0.79 0.78 0.77 0.74 0.72 0.65 0.61 0.59 0.52 0.48 0.36 0.27 0.27 0.29 0.38 0.42 0.42 0.38 0.34
0.01 0.01 0.02 0.05 0.11 0.17 0.20 0.24 0.32 0.41 0.49 0.53 0.54 0.56 0.61 0.83 1.17 1.29 1.14 0.93 0.79 0.75 0.73 0.75 0.82 0.93 0.99 1.02 1.07 0.93 0.81 0.82 0.77 0.71 0.57 0.44 0.36 0.39 0.46 0.49 0.58 0.52 0.46
0.02 0.03 0.06 0.11 0.18 0.26 0.30 0.33 0.40 0.46 0.49 0.48 0.49 0.49 0.52 0.70 1.11 1.24 0.96 0.67 0.55 0.58 0.63 0.61 0.62 0.75 0.82 0.89 1.02 1.04 1.04 1.11 1.11 1.02 0.87 0.72 0.54 0.49 0.54 0.66 0.76 0.84 0.75
0.04 0.07 0.10 0.14 0.18 0.21 0.23 0.28 0.33 0.32 0.28 0.31 0.36 0.36 0.36 0.48 0.84 0.97 0.68 0.38 0.28 0.33 0.42 0.45 0.45 0.53 0.65 0.68 0.71 0.73 0.80 0.94 1.13 1.22 1.19 0.95 0.75 0.64 0.72 0.82 0.86 0.95 0.90
0.04 0.07 0.10 0.13 0.16 0.14 0.14 0.17 0.20 0.18 0.17 0.21 0.22 0.19 0.17 0.24 0.58 0.77 0.54 0.24 0.17 0.22 0.30 0.35 0.36 0.40 0.52 0.70 0.77 0.65 0.57 0.67 0.92 1.11 1.25 1.11 0.95 0.91 1.05 1.22 1.27 1.28 1.15
0.04 0.05 0.07 0.11 0.14 0.12 0.10 0.11 0.14 0.14 0.14 0.13 0.11 0.09 0.07 0.11 0.40 0.71 0.57 0.23 0.18 0.18 0.23 0.31 0.30 0.27 0.44 0.62 0.68 0.61 0.49 0.52 0.63 0.88 1.05 1.09 1.09 1.19 1.37 1.62 1.75 1.80 1.66
0.02 0.03 0.03 0.04 0.06 0.05 0.04 0.04 0.05 0.06 0.07 0.06 0.05 0.04 0.04 0.05 0.22 0.63 0.70 0.31 0.23 0.18 0.19 0.24 0.33 0.34 0.45 0.53 0.54 0.57 0.59 0.53 0.46 0.49 0.56 0.65 0.74 0.83 1.08 1.37 1.57 1.78 1.77
0.00 0.00 0.00 0.00 0.01 0.01 0.02 0.02 0.03 0.03 0.04 0.04 0.03 0.03 0.03 0.03 0.08 0.39 0.78 0.55 0.33 0.23 0.22 0.27 0.28 0.33 0.40 0.44 0.50 0.56 0.68 0.60 0.49 0.51 0.52 0.53 0.59 0.69 0.83 1.06 1.33 1.59 1.78
0.00 0.00 0.00 0.01 0.01 0.01 0.02 0.02 0.03 0.03 0.04 0.04 0.04 0.04 0.03 0.03 0.07 0.25 0.53 0.65 0.51 0.32 0.29 0.22 0.22 0.27 0.32 0.38 0.41 0.48 0.50 0.51 0.52 0.52 0.49 0.48 0.53 0.62 0.72 0.85 1.07 1.30 1.45
0.00 0.00 0.00 0.01 0.01 0.02 0.03 0.03 0.04 0.05 0.07 0.08 0.08 0.07 0.05 0.05 0.09 0.23 0.28 0.33 0.42 0.38 0.38 0.35 0.25 0.24 0.26 0.24 0.25 0.32 0.35 0.37 0.46 0.48 0.43 0.40 0.46 0.56 0.62 0.70 0.81 1.01 1.18
0.00 0.01 0.01 0.01 0.02 0.02 0.03 0.04 0.05 0.08 0.19 0.23 0.18 0.15 0.11 0.10 0.20 0.36 0.28 0.19 0.25 0.33 0.34 0.31 0.23 0.21 0.18 0.14 0.13 0.16 0.20 0.27 0.37 0.41 0.38 0.33 0.35 0.43 0.54 0.66 0.78 0.90 1.10
0.01 0.01 0.01 0.02 0.03 0.04 0.04 0.04 0.06 0.09 0.27 0.40 0.32 0.31 0.31 0.33 0.41 0.52 0.46 0.41 0.41 0.42 0.43 0.40 0.31 0.24 0.22 0.19 0.14 0.12 0.14 0.20 0.27 0.29 0.31 0.33 0.35 0.41 0.48 0.57 0.75 0.89 1.07
0.01 0.02 0.02 0.04 0.04 0.04 0.05 0.05 0.06 0.08 0.15 0.17 0.20 0.28 0.30 0.40 0.43 0.39 0.39 0.42 0.43 0.44 0.47 0.46 0.30 0.22 0.21 0.19 0.18 0.16 0.14 0.16 0.20 0.25 0.29 0.31 0.36 0.41 0.47 0.51 0.67 0.84 0.96
0.02 0.03 0.05 0.05 0.05 0.06 0.07 0.09 0.10 0.08 0.07 0.07 0.09 0.15 0.25 0.33 0.31 0.30 0.34 0.33 0.33 0.33 0.36 0.29 0.20 0.18 0.17 0.16 0.16 0.16 0.14 0.11 0.14 0.22 0.25 0.26 0.31 0.37 0.43 0.48 0.55 0.69 0.82
0.02 0.03 0.06 0.07 0.07 0.09 0.11 0.13 0.15 0.15 0.12 0.07 0.06 0.08 0.15 0.22 0.23 0.22 0.27 0.30 0.25 0.20 0.20 0.19 0.18 0.16 0.15 0.16 0.16 0.16 0.14 0.13 0.16 0.19 0.21 0.22 0.27 0.35 0.40 0.42 0.48 0.60 0.72
0.03 0.04 0.07 0.08 0.09 0.11 0.13 0.15 0.15 0.15 0.14 0.11 0.08 0.07 0.10 0.13 0.14 0.14 0.18 0.23 0.21 0.16 0.14 0.15 0.14 0.15 0.15 0.16 0.16 0.16 0.17 0.18 0.16 0.19 0.20 0.20 0.23 0.31 0.36 0.34 0.40 0.50 0.65
0.03 0.06 0.09 0.10 0.11 0.13 0.15 0.17 0.18 0.18 0.17 0.15 0.12 0.11 0.16 0.23 0.21 0.15 0.16 0.18 0.19 0.17 0.14 0.14 0.13 0.14 0.16 0.18 0.19 0.19 0.20 0.18 0.17 0.19 0.19 0.18 0.19 0.25 0.30 0.30 0.35 0.44 0.54
0.05 0.06 0.10 0.11 0.13 0.16 0.19 0.22 0.23 0.24 0.23 0.19 0.13 0.12 0.30 0.38 0.29 0.19 0.17 0.17 0.19 0.19 0.17 0.17 0.15 0.15 0.16 0.18 0.20 0.21 0.21 0.19 0.17 0.18 0.18 0.18 0.19 0.21 0.22 0.26 0.30 0.37 0.45
0.07 0.09 0.12 0.15 0.17 0.20 0.24 0.25 0.26 0.27 0.24 0.21 0.15 0.12 0.19 0.22 0.20 0.17 0.16 0.15 0.14 0.16 0.18 0.22 0.20 0.18 0.20 0.24 0.26 0.28 0.24 0.19 0.16 0.18 0.19 0.18 0.18 0.18 0.19 0.23 0.25 0.32 0.39
0.13 0.15 0.16 0.17 0.19 0.22 0.23 0.20 0.22 0.24 0.23 0.21 0.19 0.18 0.17 0.17 0.17 0.18 0.17 0.15 0.15 0.15 0.16 0.20 0.22 0.18 0.17 0.21 0.24 0.30 0.31 0.23 0.18 0.20 0.24 0.23 0.20 0.18 0.18 0.21 0.23 0.29 0.36
0.17 0.18 0.20 0.21 0.22 0.24 0.24 0.23 0.23 0.24 0.24 0.24 0.22 0.21 0.19 0.18 0.17 0.15 0.14 0.14 0.14 0.14 0.16 0.20 0.22 0.20 0.19 0.23 0.24 0.23 0.24 0.23 0.26 0.27 0.26 0.26 0.23 0.19 0.20 0.22 0.21 0.25 0.32
0.16 0.18 0.20 0.23 0.26 0.28 0.29 0.28 0.26 0.26 0.27 0.26 0.24 0.21 0.18 0.16 0.15 0.13 0.12 0.13 0.15 0.15 0.15 0.18 0.21 0.22 0.21 0.21 0.23 0.24 0.23 0.28 0.37 0.46 0.53 0.52 0.41 0.30 0.28 0.27 0.25 0.25 0.31
0.15 0.18 0.22 0.26 0.29 0.31 0.34 0.35 0.31 0.29 0.30 0.27 0.23 0.22 0.20 0.18 0.17 0.15 0.15 0.17 0.20 0.20 0.18 0.17 0.18 0.21 0.22 0.22 0.21 0.24 0.28 0.35 0.46 0.64 0.85 0.86 0.60 0.38 0.31 0.31 0.27 0.29 0.32